Overview Statistics Trail Chart Weather Telemetry Raw packets
 

This is the latest recevied weather packets stored in our database for station/object N7ZEF. If no packets are shown the sender has not sent any weather packets the latest 10 day(s).

<< 51 52 53 54 55 56 57 >>
Time Temp. Humidity Pressure Rain* Wind** Luminosity Snow
1777382586 1.67° C 89% 1018.7 hPa 0 mm - - -
1777381984 1.11° C 89% 1018.4 hPa 0 mm - - -
1777381383 1.11° C 89% 1018.4 hPa 0 mm - - -
1777380781 1.11° C 90% 1018 hPa 0 mm - - -
1777380180 1.11° C 90% 1017.9 hPa 0 mm - - -
1777379579 0.56° C 90% 1017.7 hPa 0 mm - - -
1777378977 1.11° C 90% 1017.5 hPa 0 mm - - -
1777378376 1.11° C 91% 1017.4 hPa 0 mm - - -
1777377775 1.11° C 94% 1017.1 hPa 0 mm - - -
1777377173 1.11° C 96% 1017 hPa 0 mm - - -
1777376572 1.11° C 96% 1016.8 hPa 0 mm - - -
1777375970 1.11° C 95% 1016.8 hPa 0 mm - - -
1777375369 1.11° C 94% 1016.8 hPa 0 mm - - -
1777374768 1.67° C 93% 1016.8 hPa 0 mm - - -
1777374166 1.67° C 93% 1016.5 hPa 0 mm - - -
1777373565 1.67° C 95% 1016.4 hPa 0 mm - - -
1777372964 1.67° C 96% 1016.4 hPa 0 mm - - -
1777372362 2.22° C 96% 1016.4 hPa 0 mm - - -
1777371761 2.22° C 97% 1016.3 hPa 0 mm - - -
1777371160 2.22° C 97% 1016.1 hPa 0 mm - - -
1777370558 2.22° C 97% 1016.1 hPa 0 mm - - -
1777369957 2.22° C 97% 1016.1 hPa 0 mm - - -
1777369355 2.22° C 97% 1016 hPa 0 mm - - -
1777368754 2.22° C 97% 1016 hPa 0 mm - - -
1777368153 2.22° C 97% 1015.9 hPa 0 mm - - -

* Rain latest hour (hover to see other rain measurements)
** Current wind speed in m/s (hover to see current wind gust speed)